Showing default

CENTAURI-6, 59451

Orbit data source: Space-Track

CENTAURI-6, 59451 is a payload satellite owned by Fleet Space (AU) in LEO that was launched on Sun, 07 Apr 2024 UTC via an FALCON 9 launch vehicle from the Air Force Eastern Test Range (AFETR). Payload-class satellites include a variety of spacecraft equipped with specific instruments for various scientific and technological missions. These include communications satellites like Starlink; space stations such as the ISS; scientific satellites like the Hubble; Earth observation satellites from companies like Planet Labs, Umbra, and HawkEye 360; GPS; miniature CubeSats for education and research; and military/defense satellites.

Loading next visibility...
Identifier
59451, 2024-066K
Orbit
LEO
Country
Flag of AUAU / AUS
Related business
Manufacturer
Terran Orbital
Mission
Operational Commercial Communications
Bus & Motor
CUBESAT 12U, Unknown motor
Mass
~20 kg wet, ~20 kg dry
Launch date (UTC)
2024-04-07 (2 years ago)
Launch vehicle
FALCON 9
Launch site
Air Force Eastern Test Range (AFETR)
Object type
Payload
Rocket body
Debris
Shape & HBR
Box + 2 Pan, 1.0 m
Radar Cross Section
0.183 m², Medium (>0.1 m² and < 1m²)

Expand to show TLE details & history
Last TLE update: 16 hours ago

TLE from 16 hours ago
0 CENTAURI-6
1 59451U 24066K   26036.91626340  .00006971  00000-0  50896-3 0  9994
2 59451  45.6042 219.4188 0001241 160.5618 199.5313 15.04349984100341
Epoch: 2026-02-05T21:59Z
TLE epoch observation values (Epoch: 2026-02-05T21:59:25.157Z)
Latitude
-0.00001°
Longitude
113.50234°
Altitude
554.378 km
Speed
7.586 km/s
True Right ascension
14h 37m 40s
True Declination
0° 00' 00"
Sunlit
Object was in daylight at epoch
Visualization orbit readout
Latitude
Unknown
Longitude
Unknown
Altitude
Unknown
Speed
Unknown
Apparent Right ascension
Unknown
Apparent Declination
Unknown
Sunlit
N/A
Visualization observer readout
Local Sidereal Time
16:07:23
Azimuth
Unknown
Elevation
Unknown
Doppler factor
Unknown
Orbital elements
Apogee altitude
555.855 km
Perigee altitude
554.134 km
Semi-major axis
6,933.131 km
Eccentricity
0.00012
Inclination
45.6042°
RAAN
219.4188°
Arg. of periapsis
160.5618°
True anomaly
199.52655°
Mean anomaly
199.5313°
Eccentric anomaly
199.52892°
Mean motion
3.75966 °/min
Orbital period
95.75 mins
BSTAR
0.00050896
Loading maneuver chart data...
Computing Atmospheric mass density...
Loading historical data...
Loading historical data...
Loading historical data...
Loading historical data...
Loading historical data...
Loading historical data...
Loading historical data...

Documentation

Showing up to 5 results
|